SCP
0 0 0 0 0 0 0 0 0 0 0 0 0 0 0 0 0 0 0 0 0 0 0 0 0 0 0 0 0 1 1 1 1 1 1 1 0 0 0 0 0 0 0 0
0 0 0 0 0 0 0 0 0 0 0 0 0 0 0 0 0 0 0 0 0 0 0 0 0 0 0 0 0 0 1 1 1 1 1 1 1 0 0 0 0 0 0 0
0 0 0 0 0 0 0 0 0 0 0 0 0 0 0 0 0 0 0 0 0 0 0 0 0 0 0 0 0 0 0 1 1 1 1 1 0 0 0 0 0 0 0 0
0 0 0 0 0 0 0 0 0 0 0 0 0 0 0 0 0 0 0 0 0 0 0 0 0 0 0 0 0 0 0 0 1 1 1 1 0 0 0 0 0 0 0 0
0 0 0 0 0 0 0 0 0 0 0 0 0 0 0 0 0 0 0 0 0 0 0 0 0 0 0 0 0 0 0 0 0 0 0 1 0 0 0 0 0 0 0 0
0 0 0 0 0 0 0 0 0 0 0 0 0 0 0 0 0 0 0 0 0 0 0 0 0 0 0 0 0 0 0 0 0 0 0 0 0 0 0 0 0 0 0 0
0 0 0 0 0 0 0 0 0 0 0 0 0 0 0 0 0 0 0 0 0 0 0 0 0 0 0 0 0 0 0 0 0 0 0 1 0 0 0 0 0 0 0 0
0 0 0 0 0 0 0 0 0 0 0 0 0 0 0 0 0 0 0 0 0 0 0 0 0 0 0 0 0 0 0 0 0 0 0 1 1 0 0 0 0 0 0 0
0 0 0 0 0 0 0 0 0 0 0 0 0 0 0 0 0 0 0 0 0 0 0 0 0 0 0 0 0 0 0 0 0 0 0 0 0 0 0 0 0 0 0 0
0 0 0 0 0 0 0 0 0 0 0 0 0 0 0 0 0 0 0 0 0 0 0 0 0 0 0 0 0 0 0 0 0 0 0 0 0 0 0 0 0 0 0 0
0 0 0 0 0 0 0 0 0 0 0 0 0 0 0 0 0 0 0 0 0 0 0 0 0 0 0 0 0 0 0 0 0 0 0 0 0 0 0 0 0 0 0 0
0 0 0 0 0 0 0 0 0 0 0 0 0 0 0 0 0 0 0 0 0 0 0 0 0 0 0 0 0 0 0 0 0 0 0 0 0 0 0 0 0 0 0 0
0 0 0 0 0 0 0 0 0 0 0 0 0 0 0 0 0 0 0 0 0 0 0 0 0 0 0 0 0 0 0 0 0 0 0 0 0 0 0 0 0 0 0 0
0 0 0 0 0 0 0 0 0 0 0 0 0 0 0 0 0 0 0 0 0 0 0 0 0 0 0 0 0 0 0 0 0 0 0 0 0 0 0 0 0 0 0 0
0 0 0 0 0 0 0 0 0 0 0 0 0 0 0 0 0 0 0 0 0 0 0 0 0 0 0 0 0 0 0 0 0 0 0 0 0 0 0 0 0 0 0 0
0 0 0 0 0 0 0 0 0 0 0 0 0 0 0 0 0 0 0 0 0 0 0 0 0 0 0 0 0 0 0 0 0 0 0 0 0 0 0 0 0 0 0 0
0 0 0 0 0 0 0 0 0 0 0 0 0 0 0 0 0 0 0 0 0 0 0 0 0 0 0 0 0 0 0 0 0 0 0 0 0 0 0 0 0 0 0 0
0 0 0 0 0 0 0 0 0 0 0 0 0 0 0 0 0 0 0 0 0 0 0 0 0 0 0 0 0 0 0 0 0 0 0 0 0 0 0 0 0 0 0 0
0 0 0 0 0 0 0 0 0 0 0 0 0 0 0 0 0 0 0 0 0 0 0 0 0 0 0 0 0 0 0 0 0 0 0 0 0 0 0 0 0 0 0 0
0 0 0 0 0 0 0 0 0 0 0 0 0 0 0 0 0 0 0 0 0 0 0 0 0 0 0 0 0 0 0 0 0 0 0 0 0 0 0 0 0 0 0 0
0 0 0 0 0 0 0 0 0 0 0 0 0 0 0 0 0 0 0 0 0 0 0 0 0 0 0 0 0 0 0 0 0 0 0 0 0 0 0 0 0 0 0 0
0 0 0 0 0 0 0 0 0 0 0 0 0 0 0 0 0 0 0 0 0 0 0 0 0 0 0 0 0 0 0 0 0 0 0 0 0 0 0 0 0 0 0 0
0 0 0 0 0 0 0 0 0 0 0 0 0 0 0 0 0 0 0 0 0 0 0 0 0 0 0 0 0 0 0 0 0 0 0 0 0 0 0 0 0 0 0 0
0 0 0 0 0 0 0 0 0 0 0 0 0 0 0 0 0 0 0 0 0 0 0 0 0 0 0 0 0 0 0 0 0 0 0 0 0 0 0 0 0 0 0 0
0 0 0 0 0 0 0 0 0 0 0 0 0 0 0 0 0 0 0 0 0 0 0 0 0 0 0 0 0 0 0 0 0 0 0 0 0 0 0 0 0 0 0 0
0 0 0 0 0 0 0 0 0 0 0 0 0 0 0 0 0 0 0 0 0 0 0 0 0 0 0 0 0 0 0 0 0 0 0 0 0 0 0 0 0 0 0 0
Wind_Speed
2 3 2 2 3 3 6 7 5 2 1 2 4 3 1 0 1 0 1 1 2 3 4 5 6 6 5 5 5 5 4 4 3 2 2 1 1 2 2 2 4 4 4 3
3 1 2 1 3 5 5 6 4 3 3 2 3 2 2 2 2 1 1 1 2 3 4 5 6 6 6 5 5 5 4 4 4 3 2 2 2 1 2 2 3 4 4 4
4 1 1 3 4 5 4 5 5 3 1 1 2 3 3 3 2 1 1 1 1 2 3 4 4 5 6 6 5 4 5 4 4 3 2 2 2 2 2 3 3 4 4 4
2 2 0 2 2 4 4 3 5 5 4 2 3 4 5 4 4 3 2 2 2 1 2 2 3 4 5 5 5 5 5 5 4 3 2 2 2 2 3 2 3 4 5 4
2 2 1 1 2 3 2 2 4 5 3 2 3 5 4 4 6 6 4 3 2 2 2 2 3 4 4 5 5 5 4 5 5 4 3 2 2 2 2 3 3 4 4 5
1 1 2 2 2 2 2 4 3 3 4 5 6 7 6 5 7 6 4 3 2 1 1 2 3 4 4 5 5 4 4 4 5 4 4 3 3 3 3 4 3 3 3 4
0 0 1 2 1 2 2 4 3 4 4 5 5 8 7 3 5 6 5 3 2 1 1 2 3 3 4 5 5 4 4 4 4 4 4 3 3 3 3 3 4 4 3 4
1 1 1 2 1 2 4 4 3 3 4 3 4 9 4 0 2 3 3 2 1 1 1 2 2 3 3 4 4 4 4 4 4 3 3 3 3 2 2 3 3 3 3 3
1 1 0 1 1 2 3 3 0 1 1 2 5 5 3 2 2 2 2 2 1 1 1 2 2 3 3 3 4 4 4 4 4 4 3 3 3 3 3 3 3 3 3 4
1 2 2 2 2 1 1 2 3 3 3 4 5 6 5 4 4 4 3 3 2 1 2 2 2 3 3 3 3 4 3 3 3 3 3 3 3 3 3 3 3 3 4 4
1 1 1 1 2 3 3 4 3 3 2 3 4 4 2 6 5 5 4 2 2 2 2 2 2 2 3 3 3 3 3 3 3 3 3 3 3 3 3 3 3 3 4 4
1 1 2 2 1 2 3 4 5 4 3 4 4 3 1 3 3 3 2 2 2 2 2 2 2 2 2 3 3 3 3 3 3 3 3 3 3 3 3 4 4 4 4 5
2 2 2 2 3 3 4 5 5 2 2 4 5 4 2 1 1 2 2 2 1 1 1 2 2 2 3 3 3 3 3 3 3 3 3 3 3 4 4 4 5 5 5 5
1 2 4 4 1 2 5 6 7 7 5 6 9 8 5 3 3 3 2 2 1 1 1 2 2 3 3 3 3 4 4 4 3 3 3 3 4 4 5 5 5 5 5 5
0 2 3 5 5 4 6 8 10 11 10 9 8 9 9 6 5 4 3 2 2 2 2 3 3 3 3 3 3 4 4 4 4 3 3 4 4 4 4 5 5 5 5 5
0 2 2 3 2 3 6 9 11 11 11 11 11 12 8 5 3 4 4 4 4 4 4 3 3 4 4 4 4 4 4 4 3 3 3 4 4 4 5 5 5 5 5 5
2 2 1 3 4 3 7 8 10 8 8 9 11 8 3 4 5 5 5 5 5 5 4 4 4 4 4 4 3 4 4 3 3 3 4 4 4 5 5 5 5 5 6 6
3 2 1 2 2 5 3 1 4 7 8 9 9 7 6 7 7 6 6 6 6 5 5 5 4 4 3 3 3 3 3 3 3 3 4 4 4 5 5 5 5 6 5 5
3 3 2 1 3 8 6 4 5 6 7 8 10 9 7 4 4 6 5 6 6 6 5 4 4 4 3 3 2 2 2 2 2 3 4 4 4 5 5 5 5 6 5 5
2 2 2 2 4 7 3 2 2 2 6 5 8 8 6 3 5 5 3 5 5 4 3 3 3 3 3 2 2 2 2 2 3 4 4 4 4 4 5 5 5 5 5 5
3 3 5 5 6 10 4 3 5 4 4 2 6 6 6 7 6 3 2 4 4 4 3 3 3 3 3 2 2 2 3 3 3 3 4 4 4 4 5 5 5 5 5 5
7 6 7 6 6 9 5 8 8 5 0 3 4 5 6 6 5 4 3 3 4 4 3 3 3 3 2 2 2 3 3 3 3 3 3 4 4 4 3 4 5 5 5 5
9 8 6 10 9 2 7 8 5 2 3 4 4 5 6 5 6 5 5 5 4 5 4 4 4 3 3 2 3 4 3 2 2 3 3 3 4 4 4 4 4 4 4 3
6 5 5 8 12 9 9 9 8 6 7 6 5 5 6 7 6 6 5 5 5 4 4 3 3 4 4 3 3 3 2 1 2 2 3 3 3 4 3 3 3 3 3 3
7 7 6 10 10 8 9 11 11 9 7 7 7 7 7 7 7 7 6 5 5 4 4 4 5 5 5 3 3 2 1 1 2 3 3 3 3 3 3 3 3 4 3 4
10 12 11 11 9 7 6 5 7 9 9 9 8 7 7 7 8 7 6 5 5 5 4 4 5 5 4 3 3 3 2 2 2 3 3 2 3 3 3 3 3 5 5 6
Wind_Direction
72 102 140 180 190 172 159 162 157 152 116 134 161 175 189 175 160 146 336 338 344 352 1 11 14 15 17 18 16 12 10 4 3 3 359 351 352 356 2 6 359 353 351 348
116 90 246 202 160 147 152 148 142 108 75 120 154 222 239 219 222 218 239 307 322 341 357 9 11 13 15 12 13 10 5 3 4 1 358 1 360 357 2 5 3 358 351 349
124 37 245 166 153 158 175 184 176 154 75 98 192 229 219 212 219 239 285 303 315 329 335 352 3 9 13 10 4 4 3 3 4 4 24 40 42 29 23 11 5 2 355 356
81 324 246 154 185 207 209 216 188 175 185 186 232 241 216 216 216 226 247 269 281 297 307 327 345 356 1 359 360 3 3 3 7 10 22 28 38 19 358 355 353 355 358 355
100 351 346 178 229 218 201 200 188 191 194 209 213 244 230 196 229 232 234 250 268 279 291 313 338 348 357 359 359 1 10 10 11 15 21 22 20 12 4 8 10 4 2 359
50 350 344 316 271 214 153 152 152 191 212 228 214 230 243 207 225 223 220 232 255 294 333 349 2 4 5 8 7 4 11 15 14 16 21 20 14 7 5 2 1 360 355 354
11 291 338 310 177 139 161 170 173 195 213 226 188 225 248 212 218 215 211 218 231 249 336 353 359 1 1 4 8 2 5 11 12 14 17 14 7 2 355 346 350 346 343 346
187 250 326 327 250 216 196 202 198 212 222 215 190 230 238 153 230 213 210 212 218 243 317 338 345 352 357 358 1 4 4 4 2 4 5 4 2 356 350 346 340 336 333 337
204 232 318 272 290 240 182 190 319 96 78 227 222 246 263 191 198 196 207 212 227 257 314 330 344 353 355 356 357 359 0 4 1 358 6 6 4 0 353 346 345 341 339 338
304 254 292 285 217 168 262 157 167 189 212 239 241 237 229 202 218 214 212 223 247 281 313 330 341 345 345 351 356 0 360 357 360 5 5 357 353 351 344 341 343 338 340 340
265 243 299 208 205 202 187 182 181 176 248 251 250 246 196 208 206 214 219 231 252 273 281 308 325 333 343 353 354 354 354 358 2 4 2 359 358 353 346 343 338 340 341 340
212 250 263 251 276 259 221 214 198 210 211 234 261 270 86 215 203 200 213 254 285 292 300 315 321 332 341 349 348 344 343 347 348 352 353 352 354 350 347 349 345 344 341 338
185 208 247 202 183 186 215 216 210 203 201 220 234 253 99 143 200 196 221 276 297 307 323 326 328 335 337 339 341 339 337 339 341 346 349 349 354 353 346 343 341 341 335 331
195 218 235 251 282 200 222 217 204 202 219 230 238 257 266 254 247 245 255 269 275 275 280 293 305 317 326 327 330 332 333 335 338 340 344 350 351 344 339 336 337 335 329 327
175 237 251 272 283 267 256 241 218 220 226 236 247 254 266 263 253 249 247 254 257 264 268 276 287 301 311 316 321 324 327 331 334 336 343 344 341 338 335 334 334 332 330 326
205 220 255 279 293 292 271 255 235 234 234 240 254 268 268 267 248 235 234 237 246 254 261 268 279 289 295 303 307 311 316 321 327 331 336 336 334 335 333 334 334 332 330 329
182 174 225 270 321 304 268 240 214 216 220 218 233 243 244 246 247 239 235 237 242 248 254 261 270 276 286 292 296 298 306 317 326 328 330 330 330 332 332 332 334 332 329 329
174 157 208 292 335 251 250 109 211 225 239 230 242 250 246 254 262 251 233 228 236 246 252 259 266 272 279 284 289 297 307 314 317 319 323 326 328 328 327 328 329 328 325 323
197 176 173 214 267 278 280 228 200 215 259 234 230 243 252 257 269 249 227 219 232 243 248 255 262 267 267 269 285 297 303 309 310 313 319 321 320 318 319 322 323 322 320 316
164 177 183 193 239 256 261 143 161 186 267 224 207 220 227 200 248 264 216 228 243 247 246 251 260 258 251 265 279 271 280 288 295 304 311 312 310 309 311 313 314 313 312 310
171 188 206 216 241 264 257 154 159 205 258 182 199 209 204 216 247 289 242 232 233 239 243 241 244 245 249 251 239 251 266 274 293 308 309 310 309 307 306 308 309 310 311 312
188 186 196 190 221 253 168 158 199 231 321 186 205 212 219 239 260 266 254 237 229 234 236 233 237 246 247 228 223 244 259 284 305 304 303 306 307 307 308 309 309 311 310 309
212 207 199 203 225 268 177 206 226 237 227 226 224 225 224 238 248 253 252 242 236 234 236 233 234 241 243 231 231 242 262 288 296 297 299 303 310 307 304 301 303 307 306 304
228 213 225 249 257 252 240 243 248 238 239 247 241 237 227 236 243 249 249 246 241 237 234 232 229 235 242 241 246 253 264 269 273 281 293 300 305 307 308 302 299 301 303 302
217 187 216 250 263 273 251 234 236 236 236 241 244 238 233 234 243 245 245 241 238 241 238 226 225 233 238 237 245 255 253 236 258 274 283 292 295 299 301 300 301 299 295 300
199 196 202 234 228 219 240 219 218 222 231 232 234 243 238 229 239 242 241 238 236 235 231 228 231 233 234 232 242 245 238 227 236 256 269 278 285 290 291 296 304 311 312 314